GW5308 Weather Reports


time (UTC)temp
C
wind
direction
speed
KPH
gust
KPH
rain 1hr
cm
rain 24hr
cm
rain mn
cm
humidity
%
barometer
mb
20260502204018 20 0 0.0 8.0 0.20 0.43 0.43 99 1008.8
20260502203516 20 177 1.6 8.0 0.20 0.43 0.43 99 1009.0
20260502203056 20 0 0.0 4.8 0.20 0.41 0.41 99 1008.7
20260502202515 20 0 0.0 9.7 0.20 0.38 0.38 99 1009.1
20260502202015 20 278 0.0 9.7 0.23 0.38 0.38 99 1009.2
20260502201537 20 149 1.6 9.7 0.20 0.36 0.36 99 1009.2
20260502201013 20 0 0.0 3.2 0.20 0.33 0.33 99 1009.1
20260502200515 20 0 0.0 3.2 0.20 0.30 0.30 99 1009.2
20260502200038 20 0 0.0 3.2 0.25 0.30 0.30 99 1009.4
20260502195517 20 0 0.0 3.2 0.25 0.28 0.28 98 1009.1
20260502195013 20 0 0.0 6.4 0.25 0.25 0.25 98 1009.2
20260502194531 20 0 0.0 6.4 0.25 0.25 0.25 98 1009.0
20260502194015 20 210 0.0 4.8 0.23 0.23 0.23 98 1009.4
20260502193518 20 0 0.0 4.8 0.23 0.23 0.23 98 1010.0
20260502193054 20 0 0.0 4.8 0.20 0.20 0.20 97 1010.0
20260502192515 20 103 0.0 11.3 0.18 0.18 0.18 97 1010.3
20260502192018 20 249 0.0 11.3 0.15 0.15 0.15 97 1010.7
20260502191541 20 155 0.0 6.4 0.15 0.15 0.15 96 1010.6
20260502191016 20 205 0.0 11.3 0.13 0.13 0.13 96 1011.1
20260502190513 21 196 0.0 14.5 0.10 0.10 0.10 95 1010.8
20260502190033 21 222 1.6 14.5 0.05 0.05 0.05 93 1010.7
20260502185513 21 220 1.6 14.5 0.03 0.03 0.03 92 1010.6
20260502185015 21 259 0.0 8.0 0.00 0.00 0.00 90 1010.4
20260502184534 22 54 1.6 9.7 0.00 0.00 0.00 88 1010.5
20260502184013 22 115 1.6 9.7 0.00 0.00 0.00 86 1010.4
20260502183516 22 210 3.2 17.7 0.00 0.00 0.00 84 1010.3
20260502183032 23 81 3.2 17.7 0.00 0.00 0.00 80 1010.4
20260502182520 25 297 4.8 17.7 0.00 0.00 0.00 73 1010.1
20260502182018 26 267 4.8 17.7 0.00 0.00 0.00 68 1010.2
20260502181531 28 326 3.2 17.7 0.00 0.00 0.00 72 1009.8
20260502181013 28 193 1.6 9.7 0.00 0.00 0.00 73 1009.5
20260502180514 28 191 1.6 9.7 0.00 0.00 0.00 74 1009.5
20260502170518 30 214 1.6 8.0 0.00 0.00 0.00 72 1009.1
20260502164015 28 219 0.0 4.8 0.00 0.00 0.00 75 1009.3
20260502163515 28 133 1.6 6.4 0.00 0.00 0.00 73 1009.3
20260502163041 28 319 0.0 8.0 0.00 0.00 0.00 74 1009.2
20260502162514 28 212 1.6 8.0 0.00 0.00 0.00 74 1009.3
20260502162017 28 0 0.0 4.8 0.00 0.00 0.00 74 1009.2
20260502161546 28 210 0.0 6.4 0.00 0.00 0.00 73 1009.2
20260502161014 28 237 0.0 6.4 0.00 0.00 0.00 72 1009.3
20260502160516 28 231 1.6 6.4 0.00 0.00 0.00 71 1009.3
20260502152015 27 257 0.0 4.8 0.00 0.00 0.00 79 1009.4
20260502151533 27 248 0.0 4.8 0.00 0.00 0.00 79 1009.5
20260502151016 27 307 0.0 4.8 0.00 0.00 0.00 80 1009.7
20260502150514 26 0 0.0 4.8 0.00 0.00 0.00 80 1009.8
20260502130514 23 0 0.0 1.6 0.00 0.00 0.00 97 1009.7
20260502123515 22 0 0.0 0.0 0.00 0.00 0.00 100 1009.3
20260502123054 21 0 0.0 0.0 0.00 0.00 0.00 100 1009.4
20260502122513 21 0 0.0 0.0 0.00 0.00 0.00 100 1009.3
20260502122014 21 0 0.0 0.0 0.00 0.00 0.00 100 1009.3
20260502121531 20 0 0.0 0.0 0.00 0.00 0.00 100 1009.1
20260502121014 20 0 0.0 0.0 0.00 0.00 0.00 100 1009.2
20260502120519 20 0 0.0 0.0 0.00 0.00 0.00 100 1009.1
20260502115513 20 0 0.0 0.0 0.00 0.00 0.00 100 1009.0
20260502115013 20 0 0.0 0.0 0.00 0.00 0.00 100 1009.1
20260502114534 19 0 0.0 0.0 0.00 0.00 0.00 100 1009.1
20260502114014 19 0 0.0 0.0 0.00 0.00 0.00 100 1009.0
20260502113516 18 0 0.0 0.0 0.00 0.00 0.00 100 1009.1
20260502113037 18 0 0.0 0.0 0.00 0.00 0.00 100 1009.0
20260502112514 18 0 0.0 0.0 0.00 0.00 0.00 100 1009.0
20260502112012 18 0 0.0 0.0 0.00 0.00 0.00 100 1009.0
20260502111536 18 0 0.0 0.0 0.00 0.00 0.00 100 1009.1
20260502111015 18 0 0.0 0.0 0.00 0.00 0.00 100 1008.9
20260502110517 18 0 0.0 0.0 0.00 0.00 0.00 100 1008.9
20260502110031 18 0 0.0 0.0 0.00 0.00 0.00 100 1008.6
20260502105518 18 0 0.0 0.0 0.00 0.00 0.00 100 1008.5
20260502105016 18 0 0.0 0.0 0.00 0.00 0.00 100 1008.4
20260502104535 18 0 0.0 0.0 0.00 0.00 0.00 100 1008.3
20260502104016 18 0 0.0 0.0 0.00 0.00 0.00 100 1008.1
20260502103516 18 0 0.0 0.0 0.00 0.00 0.00 100 1007.9
20260502103030 18 0 0.0 0.0 0.00 0.00 0.00 100 1007.9
20260502102515 18 0 0.0 0.0 0.00 0.00 0.00 100 1008.1
20260502102016 18 0 0.0 0.0 0.00 0.00 0.00 100 1008.1
20260502101542 18 0 0.0 0.0 0.00 0.00 0.00 100 1008.2
20260502101013 18 0 0.0 0.0 0.00 0.00 0.00 100 1008.1
20260502100512 18 0 0.0 0.0 0.00 0.00 0.00 100 1008.0
20260502091530 19 0 0.0 0.0 0.00 0.00 0.00 100 1008.8
20260502091014 19 0 0.0 0.0 0.00 0.00 0.00 100 1008.9
20260502090514 19 0 0.0 0.0 0.00 0.00 0.00 100 1009.0
20260502071533 20 0 0.0 0.0 0.00 0.00 0.00 100 1009.2
20260502071017 20 0 0.0 1.6 0.00 0.00 0.00 100 1009.4
20260502070518 20 0 0.0 1.6 0.00 0.00 0.00 100 1009.2
20260502070036 20 0 0.0 1.6 0.00 0.00 0.00 100 1009.2
20260502065515 20 0 0.0 0.0 0.00 0.00 0.00 100 1009.3
20260502065016 20 0 0.0 0.0 0.00 0.00 0.00 100 1009.2
20260502064545 20 0 0.0 0.0 0.00 0.00 0.00 100 1009.2
20260502064016 19 0 0.0 0.0 0.00 0.00 0.00 100 1009.4
20260502063515 19 0 0.0 0.0 0.00 0.00 0.00 100 1009.5
20260502063035 19 0 0.0 0.0 0.00 0.00 0.00 100 1009.6
20260502062518 19 0 0.0 0.0 0.00 0.00 0.00 100 1009.6
20260502062017 19 0 0.0 0.0 0.00 0.00 0.00 100 1009.7
20260502061532 19 0 0.0 0.0 0.00 0.00 0.00 100 1009.6
20260502061013 19 0 0.0 0.0 0.00 0.00 0.00 100 1009.4
20260502060514 19 0 0.0 0.0 0.00 0.00 0.00 100 1009.7
20260502060034 19 0 0.0 0.0 0.00 0.00 0.00 100 1009.7
20260502055516 19 0 0.0 0.0 0.00 0.00 0.00 99 1009.7
20260502055016 19 0 0.0 0.0 0.00 0.00 0.00 99 1009.7
20260502054536 19 0 0.0 0.0 0.00 0.00 0.00 99 1009.8
20260502054015 19 0 0.0 0.0 0.00 0.00 0.00 99 1009.8
20260502053515 19 0 0.0 0.0 0.00 0.00 0.00 99 1009.8
20260502053035 19 0 0.0 0.0 0.00 0.00 0.00 99 1010.0
20260502052515 19 0 0.0 0.0 0.00 0.00 0.00 99 1010.1
20260502052016 19 0 0.0 0.0 0.00 0.00 0.00 99 1010.1
20260502051537 20 0 0.0 0.0 0.00 0.00 0.00 99 1010.2
20260502051015 20 0 0.0 0.0 0.00 0.00 0.00 99 1010.1
20260502050513 20 0 0.0 0.0 0.00 0.00 0.00 99 1010.0
20260502050040 20 0 0.0 0.0 0.00 0.00 0.00 99 1010.0
20260502045519 20 0 0.0 0.0 0.00 0.00 0.00 99 1009.8
20260502045014 20 0 0.0 0.0 0.00 0.00 0.00 98 1009.8
20260502044530 20 0 0.0 0.0 0.00 0.00 0.00 98 1009.9
20260502044013 20 0 0.0 0.0 0.00 0.00 0.00 98 1009.9
20260502043514 20 0 0.0 0.0 0.00 0.00 0.00 98 1010.0
20260502043038 20 0 0.0 0.0 0.00 0.00 0.00 98 1010.0
20260502042515 20 0 0.0 0.0 0.00 0.00 0.00 98 1010.0
20260502042017 20 0 0.0 0.0 0.00 0.00 0.00 97 1009.9
20260502041534 20 0 0.0 0.0 0.00 0.00 0.00 98 1009.9
20260502041014 20 0 0.0 0.0 0.00 0.00 0.00 98 1010.0
20260502040518 20 0 0.0 0.0 0.00 0.00 0.00 97 1010.0
20260502040034 20 0 0.0 0.0 0.00 0.00 0.00 97 1010.0
20260502035514 20 0 0.0 0.0 0.00 0.00 0.00 96 1010.1
20260502035013 20 0 0.0 0.0 0.00 0.00 0.00 97 1010.1
20260502034532 20 0 0.0 0.0 0.00 0.00 0.00 96 1010.2
20260502034015 21 0 0.0 0.0 0.00 0.00 0.00 96 1010.1
20260502033516 21 0 0.0 0.0 0.00 0.00 0.00 96 1010.2
20260502033034 21 0 0.0 0.0 0.00 0.00 0.00 96 1010.2
20260502032514 21 0 0.0 0.0 0.00 0.00 0.00 95 1010.1
20260502032014 21 0 0.0 0.0 0.00 0.00 0.00 95 1010.1
20260502031533 21 0 0.0 0.0 0.00 0.00 0.00 95 1010.2
20260502031016 21 0 0.0 0.0 0.00 0.00 0.00 94 1010.2
20260502030515 21 0 0.0 0.0 0.00 0.00 0.00 94 1010.2
20260502030034 21 0 0.0 0.0 0.00 0.00 0.00 94 1010.0
20260502025519 21 0 0.0 0.0 0.00 0.00 0.00 94 1010.0
20260502025015 21 0 0.0 0.0 0.00 0.00 0.00 94 1010.1
20260502024534 21 0 0.0 0.0 0.00 0.00 0.00 94 1010.1
20260502024014 21 0 0.0 0.0 0.00 0.00 0.00 94 1010.2
20260502023513 21 0 0.0 0.0 0.00 0.00 0.00 93 1010.3
20260502023032 21 0 0.0 0.0 0.00 0.00 0.00 92 1010.3
20260502022515 21 0 0.0 0.0 0.00 0.00 0.00 92 1010.2
20260502022020 21 0 0.0 0.0 0.00 0.00 0.00 92 1010.2
20260502021531 21 0 0.0 0.0 0.00 0.00 0.00 91 1010.2
20260502021015 21 0 0.0 0.0 0.00 0.00 0.00 91 1010.2
20260502020515 22 0 0.0 0.0 0.00 0.00 0.00 90 1010.1
20260502020034 22 0 0.0 0.0 0.00 0.00 0.00 89 1010.3
20260502015513 22 0 0.0 0.0 0.00 0.00 0.00 88 1010.4
20260502015016 22 0 0.0 0.0 0.00 0.00 0.00 88 1010.4
20260502014536 22 0 0.0 0.0 0.00 0.00 0.00 88 1010.4
20260502014015 23 0 0.0 0.0 0.00 0.00 0.00 86 1010.4
20260502013514 23 0 0.0 0.0 0.00 0.00 0.00 85 1010.3
20260502013033 23 0 0.0 0.0 0.00 0.00 0.00 85 1010.3
20260502012515 23 0 0.0 0.0 0.00 0.00 0.00 85 1010.4
20260502012015 23 0 0.0 0.0 0.00 0.00 0.00 84 1010.3
20260502011532 23 0 0.0 0.0 0.00 0.00 0.00 83 1010.3
20260502011015 24 0 0.0 0.0 0.00 0.00 0.00 83 1010.3
20260502010515 24 0 0.0 0.0 0.00 0.00 0.00 82 1010.3
20260502010032 24 0 0.0 0.0 0.00 0.00 0.00 81 1010.3
20260502005515 24 0 0.0 0.0 0.00 0.00 0.00 81 1010.2
20260502005016 25 0 0.0 1.6 0.00 0.00 0.00 80 1010.1
20260502004530 25 0 0.0 1.6 0.00 0.00 0.00 79 1010.2
20260502004026 25 0 0.0 3.2 0.00 0.00 0.00 79 1010.0
20260502003515 25 0 0.0 3.2 0.00 0.00 0.00 78 1009.9
20260502003035 25 12 0.0 4.8 0.00 0.00 0.00 78 1009.7
20260502002514 25 4 0.0 4.8 0.00 0.00 0.00 77 1009.6
20260502002014 25 308 0.0 3.2 0.00 0.00 0.00 77 1009.5
20260502001545 25 0 0.0 4.8 0.00 0.00 0.00 77 1009.5
20260502001015 26 25 0.0 4.8 0.00 0.00 0.00 76 1009.4
20260502000514 26 31 0.0 3.2 0.00 0.00 0.00 76 1009.4
20260502000033 26 0 0.0 3.2 0.00 0.00 0.00 75 1009.3
20260501235518 26 96 0.0 3.2 0.00 0.00 0.00 75 1009.3
20260501235018 26 295 0.0 3.2 0.00 0.00 0.00 74 1009.3
20260501234537 26 352 0.0 3.2 0.00 0.00 0.00 74 1009.2
20260501234016 26 0 0.0 3.2 0.00 0.00 0.00 73 1009.1
20260501233515 26 0 0.0 4.8 0.00 0.00 0.00 73 1009.0
20260501233035 27 0 0.0 6.4 0.00 0.00 0.00 72 1008.9
20260501232515 27 7 0.0 6.4 0.00 0.00 0.00 72 1008.9
20260501232018 27 10 1.6 6.4 0.00 0.00 0.00 71 1008.8
20260501231535 27 302 1.6 8.0 0.00 0.00 0.00 71 1008.6
20260501231015 27 0 0.0 8.0 0.00 0.00 0.00 71 1008.5
20260501230516 27 359 1.6 6.4 0.00 0.00 0.00 70 1008.3
20260501230034 27 0 0.0 3.2 0.00 0.00 0.00 70 1008.2
20260501225515 28 0 0.0 6.4 0.00 0.00 0.00 69 1008.2
20260501225018 28 0 0.0 6.4 0.00 0.00 0.00 68 1008.3
20260501224531 28 4 1.6 8.0 0.00 0.00 0.00 68 1008.2
20260501224015 28 11 1.6 8.0 0.00 0.00 0.00 68 1008.1
20260501223513 28 5 3.2 11.3 0.00 0.00 0.00 67 1008.1
20260501223033 29 40 3.2 11.3 0.00 0.00 0.00 66 1007.9
20260501222515 29 2 1.6 11.3 0.00 0.00 0.00 65 1007.9
20260501222020 30 356 1.6 8.0 0.00 0.00 0.00 65 1007.9
20260501221537 30 13 1.6 6.4 0.00 0.00 0.00 65 1007.7
20260501221014 30 282 0.0 8.0 0.00 0.00 0.00 65 1007.7
20260501220514 30 111 1.6 9.7 0.00 0.00 0.00 64 1007.7
20260501220038 31 359 1.6 9.7 0.00 0.00 0.00 62 1007.7
20260501215516 31 34 3.2 9.7 0.00 0.00 0.00 59 1007.8
20260501215015 32 1 0.0 1.6 0.00 0.00 0.00 50 1007.9
20260501214543 32 325 0.0 3.2 0.00 0.00 0.00 51 1007.8
20260501214018 32 0 0.0 3.2 0.00 0.00 0.00 53 1007.8
20260501213516 32 250 0.0 3.2 0.00 0.00 0.00 52 1007.8
20260501213034 32 0 0.0 3.2 0.00 0.00 0.00 54 1007.8
20260501212514 31 48 0.0 1.6 0.00 0.00 0.00 54 1007.8
20260501212013 31 0 0.0 0.0 0.00 0.00 0.00 56 1007.8
20260501211534 31 0 0.0 1.6 0.00 0.00 0.00 56 1007.8
20260501211015 31 0 0.0 1.6 0.00 0.00 0.00 58 1007.8
20260501210517 31 0 0.0 4.8 0.00 0.00 0.00 57 1007.9
20260501210033 31 0 0.0 4.8 0.00 0.00 0.00 53 1007.8
20260501205514 31 252 0.0 1.6 0.00 0.00 0.00 57 1007.7
20260501205014 31 0 0.0 1.6 0.00 0.00 0.00 55 1007.8
20260501204534 32 0 0.0 1.6 0.00 0.00 0.00 53 1007.8